| time (UTC) | temp F | wind direction | speed MPH | gust MPH | rain 1hr in | rain 24hr in | rain mn in | humidity % | barometer mb |
| 20260509222536 | 54 | 5 | 2.0 | 5.0 | 0.00 | 0.00 | 0.00 | 78 | 1017.4 |
| 20260509222044 | 55 | 355 | 2.0 | 5.0 | 0.00 | 0.00 | 0.00 | 78 | 1017.4 |
| 20260509221548 | 55 | 347 | 1.0 | 8.0 | 0.00 | 0.00 | 0.00 | 77 | 1017.4 |
| 20260509221036 | 55 | 9 | 2.0 | 8.0 | 0.00 | 0.00 | 0.00 | 77 | 1017.4 |
| 20260509220546 | 55 | 344 | 3.0 | 6.0 | 0.00 | 0.00 | 0.00 | 77 | 1017.4 |
| 20260509220046 | 55 | 360 | 2.0 | 6.0 | 0.00 | 0.00 | 0.00 | 77 | 1017.4 |
| 20260509215552 | 55 | 5 | 3.0 | 6.0 | 0.00 | 0.00 | 0.00 | 78 | 1017.3 |
| 20260509215034 | 55 | 32 | 2.0 | 6.0 | 0.00 | 0.00 | 0.00 | 78 | 1017.3 |
| 20260509214544 | 55 | 22 | 3.0 | 8.0 | 0.00 | 0.00 | 0.00 | 78 | 1017.3 |
| 20260509214052 | 55 | 38 | 3.0 | 8.0 | 0.00 | 0.00 | 0.00 | 79 | 1017.3 |
| 20260509213540 | 55 | 346 | 3.0 | 8.0 | 0.00 | 0.00 | 0.00 | 80 | 1017.2 |
| 20260509213113 | 55 | 79 | 1.0 | 6.0 | 0.00 | 0.00 | 0.00 | 80 | 1017.2 |
| 20260509212537 | 55 | 32 | 2.0 | 5.0 | 0.00 | 0.00 | 0.00 | 81 | 1017.3 |
| 20260509212046 | 55 | 32 | 3.0 | 5.0 | 0.00 | 0.00 | 0.00 | 81 | 1017.4 |
| 20260509211553 | 55 | 32 | 3.0 | 6.0 | 0.00 | 0.00 | 0.00 | 81 | 1017.4 |
| 20260509211041 | 56 | 31 | 2.0 | 5.0 | 0.00 | 0.00 | 0.00 | 82 | 1017.4 |
| 20260509210550 | 55 | 336 | 2.0 | 11.0 | 0.00 | 0.00 | 0.00 | 82 | 1017.4 |
| 20260509210112 | 56 | 350 | 4.0 | 11.0 | 0.00 | 0.00 | 0.00 | 83 | 1017.4 |
| 20260509205538 | 56 | 360 | 2.0 | 8.0 | 0.00 | 0.00 | 0.00 | 83 | 1017.4 |
| 20260509205107 | 56 | 360 | 3.0 | 8.0 | 0.00 | 0.00 | 0.00 | 83 | 1017.4 |
| 20260509204535 | 56 | 355 | 3.0 | 8.0 | 0.00 | 0.00 | 0.00 | 83 | 1017.3 |
| 20260509204038 | 56 | 355 | 4.0 | 8.0 | 0.00 | 0.00 | 0.00 | 83 | 1017.3 |
| 20260509203548 | 56 | 355 | 3.0 | 8.0 | 0.00 | 0.00 | 0.00 | 83 | 1017.2 |
| 20260509203035 | 56 | 319 | 4.0 | 6.0 | 0.00 | 0.00 | 0.00 | 83 | 1017.2 |
| 20260509202544 | 56 | 360 | 2.0 | 8.0 | 0.00 | 0.00 | 0.00 | 83 | 1017.2 |
| 20260509202053 | 56 | 360 | 3.0 | 8.0 | 0.00 | 0.00 | 0.00 | 82 | 1017.2 |
| 20260509201556 | 56 | 336 | 3.0 | 7.0 | 0.00 | 0.00 | 0.00 | 82 | 1017.1 |
| 20260509201044 | 56 | 333 | 4.0 | 6.0 | 0.00 | 0.00 | 0.00 | 82 | 1017.2 |
| 20260509200553 | 56 | 350 | 3.0 | 6.0 | 0.00 | 0.00 | 0.00 | 81 | 1017.3 |
| 20260509200034 | 56 | 344 | 3.0 | 10.0 | 0.00 | 0.00 | 0.00 | 81 | 1017.4 |
| 20260509195540 | 56 | 17 | 5.0 | 8.0 | 0.00 | 0.00 | 0.00 | 80 | 1017.4 |
| 20260509195049 | 56 | 5 | 3.0 | 8.0 | 0.00 | 0.00 | 0.00 | 79 | 1017.4 |
| 20260509194537 | 56 | 9 | 2.0 | 6.0 | 0.00 | 0.00 | 0.00 | 79 | 1017.4 |
| 20260509194044 | 56 | 22 | 2.0 | 8.0 | 0.00 | 0.00 | 0.00 | 78 | 1017.3 |
| 20260509193534 | 57 | 360 | 3.0 | 8.0 | 0.00 | 0.00 | 0.00 | 78 | 1017.3 |
| 20260509193038 | 57 | 25 | 3.0 | 10.0 | 0.00 | 0.00 | 0.00 | 77 | 1017.3 |
| 20260509192607 | 57 | 360 | 5.0 | 10.0 | 0.00 | 0.00 | 0.00 | 77 | 1017.2 |
| 20260509192054 | 57 | 360 | 4.0 | 8.0 | 0.00 | 0.00 | 0.00 | 76 | 1017.2 |
| 20260509191542 | 57 | 31 | 3.0 | 9.0 | 0.00 | 0.00 | 0.00 | 76 | 1017.2 |
| 20260509191051 | 57 | 350 | 5.0 | 9.0 | 0.00 | 0.00 | 0.00 | 75 | 1017.1 |
| 20260509190549 | 57 | 20 | 4.0 | 8.0 | 0.00 | 0.00 | 0.00 | 75 | 1017.0 |
| 20260509190048 | 58 | 329 | 5.0 | 10.0 | 0.00 | 0.00 | 0.00 | 74 | 1017.0 |
| 20260509185537 | 58 | 349 | 5.0 | 10.0 | 0.00 | 0.00 | 0.00 | 74 | 1017.0 |
| 20260509185045 | 58 | 5 | 4.0 | 8.0 | 0.00 | 0.00 | 0.00 | 74 | 1017.0 |
| 20260509184610 | 58 | 346 | 4.0 | 11.0 | 0.00 | 0.00 | 0.00 | 74 | 1017.0 |
| 20260509184035 | 58 | 333 | 5.0 | 11.0 | 0.00 | 0.00 | 0.00 | 74 | 1017.0 |
| 20260509183605 | 58 | 5 | 3.0 | 13.0 | 0.00 | 0.00 | 0.00 | 74 | 1016.9 |
| 20260509183051 | 58 | 36 | 7.0 | 13.0 | 0.00 | 0.00 | 0.00 | 73 | 1016.9 |
| 20260509182540 | 59 | 5 | 4.0 | 10.0 | 0.00 | 0.00 | 0.00 | 72 | 1016.9 |
| 20260509182102 | 59 | 345 | 3.0 | 11.0 | 0.00 | 0.00 | 0.00 | 72 | 1016.9 |
| 20260509181548 | 59 | 360 | 7.0 | 11.0 | 0.00 | 0.00 | 0.00 | 71 | 1016.9 |
| 20260509181037 | 59 | 23 | 7.0 | 11.0 | 0.00 | 0.00 | 0.00 | 70 | 1016.8 |
| 20260509180543 | 60 | 5 | 5.0 | 11.0 | 0.00 | 0.00 | 0.00 | 69 | 1016.8 |
| 20260509180039 | 60 | 5 | 6.0 | 10.0 | 0.00 | 0.00 | 0.00 | 69 | 1016.7 |
| 20260509175547 | 61 | 10 | 4.0 | 10.0 | 0.00 | 0.00 | 0.00 | 68 | 1016.7 |
| 20260509175034 | 61 | 360 | 4.0 | 14.0 | 0.00 | 0.00 | 0.00 | 67 | 1016.7 |
| 20260509174539 | 61 | 341 | 6.0 | 14.0 | 0.00 | 0.00 | 0.00 | 65 | 1016.8 |
| 20260509174102 | 61 | 9 | 5.0 | 12.0 | 0.00 | 0.00 | 0.00 | 64 | 1016.8 |
| 20260509173612 | 61 | 355 | 5.0 | 11.0 | 0.00 | 0.00 | 0.00 | 63 | 1016.9 |
| 20260509173057 | 62 | 346 | 4.0 | 15.0 | 0.00 | 0.00 | 0.00 | 62 | 1016.9 |
| 20260509172543 | 62 | 12 | 6.0 | 15.0 | 0.00 | 0.00 | 0.00 | 62 | 1016.9 |
| 20260509172112 | 62 | 344 | 6.0 | 14.0 | 0.00 | 0.00 | 0.00 | 60 | 1016.9 |
| 20260509171540 | 63 | 13 | 7.0 | 13.0 | 0.00 | 0.00 | 0.00 | 58 | 1017.0 |
| 20260509171046 | 63 | 351 | 6.0 | 13.0 | 0.00 | 0.00 | 0.00 | 57 | 1017.0 |
| 20260509170553 | 64 | 18 | 5.0 | 10.0 | 0.00 | 0.00 | 0.00 | 58 | 1016.9 |
| 20260509170053 | 64 | 355 | 4.0 | 10.0 | 0.00 | 0.00 | 0.00 | 57 | 1017.0 |
| 20260509165537 | 64 | 355 | 4.0 | 10.0 | 0.00 | 0.00 | 0.00 | 57 | 1017.0 |
| 20260509165045 | 65 | 333 | 3.0 | 9.0 | 0.00 | 0.00 | 0.00 | 55 | 1017.0 |
| 20260509164553 | 64 | 346 | 5.0 | 13.0 | 0.00 | 0.00 | 0.00 | 55 | 1017.0 |
| 20260509164034 | 64 | 348 | 8.0 | 13.0 | 0.00 | 0.00 | 0.00 | 53 | 1016.9 |
| 20260509163542 | 64 | 61 | 4.0 | 11.0 | 0.00 | 0.00 | 0.00 | 55 | 1016.9 |
| 20260509163109 | 66 | 336 | 6.0 | 11.0 | 0.00 | 0.00 | 0.00 | 52 | 1017.0 |
| 20260509162555 | 65 | 331 | 4.0 | 11.0 | 0.00 | 0.00 | 0.00 | 52 | 1016.9 |
| 20260509162104 | 65 | 349 | 5.0 | 14.0 | 0.00 | 0.00 | 0.00 | 52 | 1016.8 |
| 20260509161548 | 64 | 331 | 5.0 | 14.0 | 0.00 | 0.00 | 0.00 | 53 | 1016.9 |
| 20260509161033 | 64 | 336 | 5.0 | 13.0 | 0.00 | 0.00 | 0.00 | 53 | 1016.8 |
| 20260509160543 | 64 | 11 | 8.0 | 14.0 | 0.00 | 0.00 | 0.00 | 53 | 1016.8 |
| 20260509160041 | 64 | 5 | 7.0 | 16.0 | 0.00 | 0.00 | 0.00 | 53 | 1016.8 |
| 20260509155551 | 64 | 337 | 8.0 | 16.0 | 0.00 | 0.00 | 0.00 | 51 | 1016.9 |
| 20260509155033 | 65 | 37 | 8.0 | 13.0 | 0.00 | 0.00 | 0.00 | 50 | 1016.9 |
| 20260509154542 | 65 | 330 | 7.0 | 12.0 | 0.00 | 0.00 | 0.00 | 52 | 1016.9 |
| 20260509154108 | 65 | 308 | 6.0 | 12.0 | 0.00 | 0.00 | 0.00 | 49 | 1016.8 |
| 20260509153551 | 65 | 360 | 5.0 | 14.0 | 0.00 | 0.00 | 0.00 | 50 | 1016.8 |
| 20260509153036 | 65 | 315 | 5.0 | 15.0 | 0.00 | 0.00 | 0.00 | 51 | 1016.8 |
| 20260509152537 | 65 | 25 | 7.0 | 19.0 | 0.00 | 0.00 | 0.00 | 52 | 1016.8 |
| 20260509152045 | 64 | 321 | 8.0 | 19.0 | 0.00 | 0.00 | 0.00 | 51 | 1016.8 |
| 20260509151552 | 65 | 307 | 6.0 | 11.0 | 0.00 | 0.00 | 0.00 | 51 | 1016.7 |
| 20260509151038 | 65 | 347 | 5.0 | 15.0 | 0.00 | 0.00 | 0.00 | 51 | 1016.9 |
| 20260509150543 | 66 | 5 | 8.0 | 14.0 | 0.00 | 0.00 | 0.00 | 51 | 1016.9 |
| 20260509150045 | 66 | 17 | 6.0 | 14.0 | 0.00 | 0.00 | 0.00 | 52 | 1016.9 |
| 20260509145552 | 65 | 348 | 6.0 | 13.0 | 0.00 | 0.00 | 0.00 | 53 | 1016.9 |
| 20260509145059 | 65 | 51 | 6.0 | 15.0 | 0.00 | 0.00 | 0.00 | 54 | 1016.9 |
| 20260509144541 | 66 | 11 | 8.0 | 15.0 | 0.00 | 0.00 | 0.00 | 54 | 1017.0 |
| 20260509144046 | 67 | 17 | 6.0 | 13.0 | 0.00 | 0.00 | 0.00 | 53 | 1017.0 |
| 20260509143534 | 66 | 33 | 5.0 | 13.0 | 0.00 | 0.00 | 0.00 | 54 | 1017.0 |
| 20260509143040 | 66 | 5 | 9.0 | 14.0 | 0.00 | 0.00 | 0.00 | 51 | 1017.1 |
| 20260509142609 | 67 | 9 | 7.0 | 14.0 | 0.00 | 0.00 | 0.00 | 49 | 1017.0 |
| 20260509142050 | 68 | 355 | 7.0 | 12.0 | 0.00 | 0.00 | 0.00 | 49 | 1017.0 |
| 20260509141539 | 68 | 34 | 6.0 | 12.0 | 0.00 | 0.00 | 0.00 | 49 | 1017.1 |
| 20260509141045 | 66 | 355 | 6.0 | 13.0 | 0.00 | 0.00 | 0.00 | 52 | 1017.1 |
| 20260509140534 | 67 | 26 | 9.0 | 13.0 | 0.00 | 0.00 | 0.00 | 50 | 1017.1 |
| 20260509140033 | 65 | 9 | 8.0 | 13.0 | 0.00 | 0.00 | 0.00 | 52 | 1017.3 |
| 20260509135539 | 66 | 335 | 9.0 | 14.0 | 0.00 | 0.00 | 0.00 | 51 | 1017.3 |
| 20260509135047 | 67 | 5 | 5.0 | 14.0 | 0.00 | 0.00 | 0.00 | 50 | 1017.4 |
| 20260509134536 | 67 | 347 | 6.0 | 12.0 | 0.00 | 0.00 | 0.00 | 51 | 1017.5 |
| 20260509134044 | 66 | 341 | 6.0 | 13.0 | 0.00 | 0.00 | 0.00 | 51 | 1017.4 |
| 20260509133551 | 65 | 351 | 7.0 | 13.0 | 0.00 | 0.00 | 0.00 | 53 | 1017.4 |
| 20260509133038 | 66 | 17 | 7.0 | 13.0 | 0.00 | 0.00 | 0.00 | 52 | 1017.5 |
| 20260509132546 | 67 | 355 | 6.0 | 12.0 | 0.00 | 0.00 | 0.00 | 50 | 1017.6 |
| 20260509132033 | 68 | 336 | 4.0 | 12.0 | 0.00 | 0.00 | 0.00 | 52 | 1017.7 |
| 20260509131542 | 68 | 20 | 6.0 | 11.0 | 0.00 | 0.00 | 0.00 | 51 | 1017.6 |
| 20260509131049 | 68 | 337 | 4.0 | 10.0 | 0.00 | 0.00 | 0.00 | 52 | 1017.7 |
| 20260509130534 | 67 | 38 | 5.0 | 12.0 | 0.00 | 0.00 | 0.00 | 54 | 1017.9 |
| 20260509130036 | 66 | 5 | 5.0 | 12.0 | 0.00 | 0.00 | 0.00 | 55 | 1017.9 |
| 20260509125543 | 66 | 339 | 7.0 | 13.0 | 0.00 | 0.00 | 0.00 | 54 | 1017.8 |
| 20260509125052 | 66 | 360 | 7.0 | 13.0 | 0.00 | 0.00 | 0.00 | 54 | 1018.0 |
| 20260509124541 | 67 | 9 | 6.0 | 11.0 | 0.00 | 0.00 | 0.00 | 51 | 1017.9 |
| 20260509124046 | 68 | 337 | 6.0 | 13.0 | 0.00 | 0.00 | 0.00 | 53 | 1018.0 |
| 20260509123552 | 67 | 26 | 4.0 | 13.0 | 0.00 | 0.00 | 0.00 | 55 | 1018.0 |
| 20260509123040 | 66 | 287 | 7.0 | 13.0 | 0.00 | 0.00 | 0.00 | 55 | 1018.1 |
| 20260509122548 | 67 | 338 | 7.0 | 12.0 | 0.00 | 0.00 | 0.00 | 51 | 1018.0 |
| 20260509122033 | 68 | 355 | 5.0 | 11.0 | 0.00 | 0.00 | 0.00 | 51 | 1018.0 |
| 20260509121538 | 68 | 30 | 5.0 | 11.0 | 0.00 | 0.00 | 0.00 | 52 | 1018.1 |
| 20260509121048 | 67 | 311 | 6.0 | 11.0 | 0.00 | 0.00 | 0.00 | 52 | 1018.1 |
| 20260509120554 | 69 | 325 | 2.0 | 8.0 | 0.00 | 0.00 | 0.00 | 50 | 1018.1 |
| 20260509120033 | 68 | 360 | 4.0 | 7.0 | 0.00 | 0.00 | 0.00 | 50 | 1018.2 |
| 20260509115537 | 68 | 360 | 3.0 | 8.0 | 0.00 | 0.00 | 0.00 | 50 | 1018.2 |
| 20260509115110 | 68 | 36 | 3.0 | 8.0 | 0.00 | 0.00 | 0.00 | 50 | 1018.2 |
| 20260509114538 | 67 | 5 | 2.0 | 8.0 | 0.00 | 0.00 | 0.00 | 50 | 1018.3 |
| 20260509114047 | 68 | 5 | 3.0 | 8.0 | 0.00 | 0.00 | 0.00 | 48 | 1018.3 |
| 20260509113535 | 67 | 32 | 4.0 | 8.0 | 0.00 | 0.00 | 0.00 | 50 | 1018.4 |
| 20260509113058 | 66 | 345 | 3.0 | 11.0 | 0.00 | 0.00 | 0.00 | 52 | 1018.4 |
| 20260509112547 | 66 | 47 | 4.0 | 10.0 | 0.00 | 0.00 | 0.00 | 54 | 1018.4 |
| 20260509112035 | 66 | 355 | 3.0 | 10.0 | 0.00 | 0.00 | 0.00 | 53 | 1018.5 |
| 20260509111542 | 64 | 5 | 2.0 | 6.0 | 0.00 | 0.00 | 0.00 | 56 | 1018.5 |
| 20260509111047 | 64 | 21 | 2.0 | 6.0 | 0.00 | 0.00 | 0.00 | 57 | 1018.6 |
| 20260509110556 | 64 | 9 | 3.0 | 9.0 | 0.00 | 0.00 | 0.00 | 55 | 1018.6 |
| 20260509110037 | 64 | 17 | 2.0 | 9.0 | 0.00 | 0.00 | 0.00 | 56 | 1018.7 |
| 20260509105606 | 65 | 17 | 2.0 | 9.0 | 0.00 | 0.00 | 0.00 | 53 | 1018.7 |
| 20260509105047 | 64 | 67 | 1.0 | 4.0 | 0.00 | 0.00 | 0.00 | 53 | 1018.6 |
| 20260509104536 | 65 | 84 | 0.0 | 7.0 | 0.00 | 0.00 | 0.00 | 53 | 1018.7 |
| 20260509104045 | 65 | 101 | 2.0 | 7.0 | 0.00 | 0.00 | 0.00 | 52 | 1018.8 |
| 20260509103534 | 66 | 47 | 2.0 | 4.0 | 0.00 | 0.00 | 0.00 | 54 | 1018.8 |
| 20260509103042 | 66 | 346 | 2.0 | 6.0 | 0.00 | 0.00 | 0.00 | 52 | 1018.8 |
| 20260509102547 | 66 | 74 | 2.0 | 7.0 | 0.00 | 0.00 | 0.00 | 51 | 1018.9 |
| 20260509102037 | 68 | 46 | 3.0 | 8.0 | 0.00 | 0.00 | 0.00 | 50 | 1018.9 |
| 20260509101610 | 67 | 56 | 1.0 | 6.0 | 0.00 | 0.00 | 0.00 | 52 | 1018.9 |
| 20260509101037 | 65 | 13 | 3.0 | 6.0 | 0.00 | 0.00 | 0.00 | 54 | 1019.0 |
| 20260509100545 | 65 | 355 | 2.0 | 5.0 | 0.00 | 0.00 | 0.00 | 55 | 1019.0 |
| 20260509100042 | 66 | 5 | 2.0 | 8.0 | 0.00 | 0.00 | 0.00 | 55 | 1019.0 |
| 20260509095550 | 66 | 63 | 2.0 | 8.0 | 0.00 | 0.00 | 0.00 | 52 | 1019.0 |
| 20260509095057 | 66 | 81 | 2.0 | 6.0 | 0.00 | 0.00 | 0.00 | 55 | 1019.0 |
| 20260509094606 | 65 | 56 | 1.0 | 9.0 | 0.00 | 0.00 | 0.00 | 53 | 1019.0 |
| 20260509094048 | 65 | 93 | 1.0 | 6.0 | 0.00 | 0.00 | 0.00 | 55 | 1018.9 |
| 20260509093535 | 66 | 5 | 3.0 | 6.0 | 0.00 | 0.00 | 0.00 | 56 | 1019.0 |
| 20260509093108 | 66 | 93 | 2.0 | 6.0 | 0.00 | 0.00 | 0.00 | 56 | 1019.1 |
| 20260509092534 | 66 | 98 | 3.0 | 6.0 | 0.00 | 0.00 | 0.00 | 57 | 1019.1 |
| 20260509092057 | 65 | 70 | 1.0 | 7.0 | 0.00 | 0.00 | 0.00 | 58 | 1019.2 |
| 20260509091610 | 65 | 51 | 2.0 | 7.0 | 0.00 | 0.00 | 0.00 | 58 | 1019.2 |
| 20260509091039 | 65 | 88 | 2.0 | 9.0 | 0.00 | 0.00 | 0.00 | 59 | 1019.2 |
| 20260509090549 | 65 | 55 | 4.0 | 10.0 | 0.00 | 0.00 | 0.00 | 60 | 1019.2 |
| 20260509090108 | 64 | 88 | 2.0 | 10.0 | 0.00 | 0.00 | 0.00 | 61 | 1019.2 |
| 20260509085534 | 64 | 90 | 2.0 | 11.0 | 0.00 | 0.00 | 0.00 | 61 | 1019.2 |
| 20260509085042 | 64 | 86 | 3.0 | 11.0 | 0.00 | 0.00 | 0.00 | 62 | 1019.1 |
| 20260509084551 | 63 | 77 | 2.0 | 5.0 | 0.00 | 0.00 | 0.00 | 62 | 1019.2 |
| 20260509084037 | 63 | 126 | 1.0 | 10.0 | 0.00 | 0.00 | 0.00 | 63 | 1019.1 |
| 20260509083543 | 62 | 61 | 4.0 | 10.0 | 0.00 | 0.00 | 0.00 | 63 | 1019.2 |
| 20260509083032 | 62 | 78 | 2.0 | 10.0 | 0.00 | 0.00 | 0.00 | 63 | 1019.2 |
| 20260509082541 | 62 | 86 | 4.0 | 10.0 | 0.00 | 0.00 | 0.00 | 64 | 1019.2 |
| 20260509082049 | 62 | 63 | 4.0 | 9.0 | 0.00 | 0.00 | 0.00 | 65 | 1019.2 |
| 20260509081535 | 62 | 121 | 4.0 | 10.0 | 0.00 | 0.00 | 0.00 | 66 | 1019.2 |
| 20260509081041 | 61 | 74 | 3.0 | 10.0 | 0.00 | 0.00 | 0.00 | 68 | 1019.2 |
| 20260509080550 | 61 | 108 | 5.0 | 10.0 | 0.00 | 0.00 | 0.00 | 69 | 1019.2 |
| 20260509080112 | 61 | 34 | 2.0 | 7.0 | 0.00 | 0.00 | 0.00 | 68 | 1019.2 |
| 20260509075538 | 60 | 126 | 2.0 | 6.0 | 0.00 | 0.00 | 0.00 | 70 | 1019.2 |
| 20260509075042 | 60 | 73 | 2.0 | 8.0 | 0.00 | 0.00 | 0.00 | 70 | 1019.2 |
| 20260509074532 | 60 | 103 | 3.0 | 9.0 | 0.00 | 0.00 | 0.00 | 71 | 1019.2 |
| 20260509074039 | 59 | 59 | 4.0 | 9.0 | 0.00 | 0.00 | 0.00 | 72 | 1019.2 |
| 20260509073547 | 59 | 44 | 2.0 | 10.0 | 0.00 | 0.00 | 0.00 | 72 | 1019.2 |
| 20260509073034 | 59 | 113 | 5.0 | 10.0 | 0.00 | 0.00 | 0.00 | 73 | 1019.2 |
| 20260509072538 | 59 | 74 | 4.0 | 9.0 | 0.00 | 0.00 | 0.00 | 74 | 1019.2 |
| 20260509072046 | 59 | 57 | 5.0 | 9.0 | 0.00 | 0.00 | 0.00 | 74 | 1019.2 |
| 20260509071534 | 58 | 67 | 4.0 | 9.0 | 0.00 | 0.00 | 0.00 | 75 | 1019.2 |
| 20260509071039 | 58 | 71 | 3.0 | 9.0 | 0.00 | 0.00 | 0.00 | 76 | 1019.2 |
| 20260509070548 | 57 | 74 | 2.0 | 8.0 | 0.00 | 0.00 | 0.00 | 77 | 1019.2 |
| 20260509070046 | 57 | 86 | 3.0 | 8.0 | 0.00 | 0.00 | 0.00 | 77 | 1019.2 |
| 20260509065536 | 56 | 94 | 3.0 | 9.0 | 0.00 | 0.00 | 0.00 | 78 | 1019.2 |
| 20260509065043 | 56 | 67 | 3.0 | 9.0 | 0.00 | 0.00 | 0.00 | 79 | 1019.3 |
| 20260509064554 | 55 | 73 | 3.0 | 8.0 | 0.00 | 0.00 | 0.00 | 80 | 1019.2 |
| 20260509064041 | 55 | 74 | 1.0 | 6.0 | 0.00 | 0.00 | 0.00 | 81 | 1019.2 |
| 20260509063546 | 55 | 117 | 2.0 | 6.0 | 0.00 | 0.00 | 0.00 | 81 | 1019.2 |
| 20260509063056 | 54 | 70 | 1.0 | 4.0 | 0.00 | 0.00 | 0.00 | 82 | 1019.2 |
| 20260509062543 | 54 | 76 | 1.0 | 8.0 | 0.00 | 0.00 | 0.00 | 82 | 1019.3 |
| 20260509062032 | 54 | 65 | 2.0 | 8.0 | 0.00 | 0.00 | 0.00 | 83 | 1019.3 |
| 20260509061539 | 53 | 76 | 1.0 | 4.0 | 0.00 | 0.00 | 0.00 | 83 | 1019.2 |
| 20260509061048 | 53 | 69 | 0.0 | 6.0 | 0.00 | 0.00 | 0.00 | 84 | 1019.3 |
| 20260509060536 | 53 | 104 | 1.0 | 6.0 | 0.00 | 0.00 | 0.00 | 85 | 1019.3 |
| 20260509060039 | 52 | 87 | 2.0 | 4.0 | 0.00 | 0.00 | 0.00 | 86 | 1019.2 |
| 20260509055548 | 52 | 86 | 2.0 | 4.0 | 0.00 | 0.00 | 0.00 | 87 | 1019.2 |
| 20260509055051 | 52 | 78 | 1.0 | 4.0 | 0.00 | 0.00 | 0.00 | 87 | 1019.2 |
| 20260509054540 | 51 | 78 | 1.0 | 4.0 | 0.00 | 0.00 | 0.00 | 87 | 1019.2 |
| 20260509054050 | 51 | 78 | 1.0 | 3.0 | 0.00 | 0.00 | 0.00 | 88 | 1019.2 |
| 20260509053539 | 51 | 78 | 0.0 | 3.0 | 0.00 | 0.00 | 0.00 | 88 | 1019.2 |
| 20260509053046 | 50 | 78 | 0.0 | 4.0 | 0.00 | 0.00 | 0.00 | 89 | 1019.1 |
| 20260509052532 | 50 | 78 | 2.0 | 4.0 | 0.00 | 0.00 | 0.00 | 89 | 1019.1 |
| 20260509052039 | 50 | 62 | 1.0 | 4.0 | 0.00 | 0.00 | 0.00 | 90 | 1019.1 |
| 20260509051611 | 49 | 62 | 1.0 | 4.0 | 0.00 | 0.00 | 0.00 | 90 | 1019.0 |
| 20260509051039 | 49 | 28 | 1.0 | 3.0 | 0.00 | 0.00 | 0.00 | 90 | 1019.0 |
| 20260509050548 | 49 | 28 | 1.0 | 2.0 | 0.00 | 0.00 | 0.00 | 91 | 1019.1 |
| 20260509050046 | 48 | 28 | 1.0 | 3.0 | 0.00 | 0.00 | 0.00 | 91 | 1019.0 |
| 20260509045534 | 48 | 28 | 1.0 | 3.0 | 0.00 | 0.00 | 0.00 | 91 | 1019.0 |
| 20260509045043 | 48 | 28 | 1.0 | 2.0 | 0.00 | 0.00 | 0.00 | 91 | 1019.0 |
| 20260509044531 | 48 | 28 | 1.0 | 2.0 | 0.00 | 0.00 | 0.00 | 91 | 1019.0 |
| 20260509044040 | 48 | 28 | 0.0 | 2.0 | 0.00 | 0.00 | 0.00 | 90 | 1019.1 |
| 20260509043546 | 48 | 28 | 1.0 | 2.0 | 0.00 | 0.00 | 0.00 | 90 | 1019.1 |
| 20260509043034 | 48 | 28 | 1.0 | 3.0 | 0.00 | 0.00 | 0.00 | 90 | 1019.0 |
| 20260509042544 | 48 | 28 | 1.0 | 3.0 | 0.00 | 0.00 | 0.00 | 90 | 1019.1 |
| 20260509042032 | 48 | 28 | 0.0 | 3.0 | 0.00 | 0.00 | 0.00 | 90 | 1019.0 |
| 20260509041541 | 48 | 28 | 1.0 | 2.0 | 0.00 | 0.00 | 0.00 | 90 | 1019.0 |
| 20260509041046 | 48 | 28 | 1.0 | 2.0 | 0.00 | 0.00 | 0.00 | 90 | 1019.0 |
| 20260509040534 | 48 | 28 | 1.0 | 2.0 | 0.00 | 0.00 | 0.00 | 90 | 1019.0 |
| 20260509040035 | 48 | 28 | 1.0 | 2.0 | 0.00 | 0.00 | 0.00 | 90 | 1019.0 |
| 20260509035541 | 48 | 28 | 1.0 | 2.0 | 0.00 | 0.00 | 0.00 | 90 | 1018.9 |
| 20260509035046 | 48 | 28 | 1.0 | 2.0 | 0.00 | 0.00 | 0.00 | 90 | 1018.8 |
| 20260509034534 | 48 | 28 | 1.0 | 2.0 | 0.00 | 0.00 | 0.00 | 90 | 1018.8 |
| 20260509034043 | 48 | 28 | 1.0 | 2.0 | 0.00 | 0.00 | 0.00 | 90 | 1018.9 |
| 20260509033552 | 48 | 28 | 1.0 | 3.0 | 0.00 | 0.00 | 0.00 | 90 | 1018.8 |
| 20260509033040 | 48 | 28 | 1.0 | 3.0 | 0.00 | 0.00 | 0.00 | 90 | 1018.8 |
| 20260509032545 | 48 | 28 | 1.0 | 2.0 | 0.00 | 0.00 | 0.00 | 89 | 1018.9 |
| 20260509032034 | 48 | 28 | 1.0 | 2.0 | 0.00 | 0.00 | 0.00 | 89 | 1018.9 |
| 20260509031543 | 48 | 28 | 1.0 | 2.0 | 0.00 | 0.00 | 0.00 | 89 | 1018.9 |
| 20260509031051 | 48 | 28 | 1.0 | 2.0 | 0.00 | 0.00 | 0.00 | 89 | 1018.9 |
| 20260509030539 | 48 | 28 | 1.0 | 3.0 | 0.00 | 0.00 | 0.00 | 89 | 1018.9 |
| 20260509030033 | 48 | 28 | 1.0 | 3.0 | 0.00 | 0.00 | 0.00 | 89 | 1018.9 |
| 20260509025543 | 48 | 28 | 1.0 | 2.0 | 0.00 | 0.00 | 0.00 | 89 | 1019.0 |
| 20260509025032 | 48 | 28 | 1.0 | 2.0 | 0.00 | 0.00 | 0.00 | 89 | 1019.0 |
| 20260509024540 | 48 | 28 | 0.0 | 2.0 | 0.00 | 0.00 | 0.00 | 89 | 1019.0 |
| 20260509024049 | 48 | 28 | 1.0 | 3.0 | 0.00 | 0.00 | 0.00 | 89 | 1019.0 |
| 20260509023535 | 48 | 28 | 1.0 | 3.0 | 0.00 | 0.00 | 0.00 | 89 | 1018.9 |
| 20260509023043 | 48 | 28 | 1.0 | 3.0 | 0.00 | 0.00 | 0.00 | 89 | 1018.9 |
| 20260509022531 | 48 | 28 | 1.0 | 2.0 | 0.00 | 0.00 | 0.00 | 89 | 1018.9 |
| 20260509022037 | 48 | 28 | 0.0 | 1.0 | 0.00 | 0.00 | 0.00 | 88 | 1018.9 |
| 20260509021602 | 48 | 28 | 0.0 | 1.0 | 0.00 | 0.00 | 0.00 | 88 | 1018.9 |
| 20260509021049 | 48 | 28 | 1.0 | 1.0 | 0.00 | 0.00 | 0.00 | 87 | 1018.9 |
| 20260509020537 | 48 | 28 | 0.0 | 1.0 | 0.00 | 0.00 | 0.00 | 87 | 1018.9 |
| 20260509020039 | 48 | 28 | 0.0 | 0.0 | 0.00 | 0.00 | 0.00 | 87 | 1018.9 |
| 20260509015548 | 49 | 28 | 0.0 | 1.0 | 0.00 | 0.00 | 0.00 | 87 | 1018.9 |
| 20260509015054 | 49 | 28 | 0.0 | 2.0 | 0.00 | 0.00 | 0.00 | 87 | 1019.0 |
| 20260509014543 | 49 | 28 | 0.0 | 2.0 | 0.00 | 0.00 | 0.00 | 86 | 1019.0 |
| 20260509014050 | 49 | 28 | 0.0 | 1.0 | 0.00 | 0.00 | 0.00 | 86 | 1019.0 |
| 20260509013540 | 49 | 28 | 0.0 | 2.0 | 0.00 | 0.00 | 0.00 | 86 | 1018.9 |
| 20260509013048 | 49 | 28 | 0.0 | 2.0 | 0.00 | 0.00 | 0.00 | 87 | 1018.9 |
| 20260509012531 | 49 | 28 | 1.0 | 2.0 | 0.00 | 0.00 | 0.00 | 86 | 1018.9 |
| 20260509012039 | 49 | 28 | 0.0 | 2.0 | 0.00 | 0.00 | 0.00 | 86 | 1019.0 |
| 20260509011548 | 49 | 28 | 1.0 | 3.0 | 0.00 | 0.00 | 0.00 | 86 | 1019.1 |
| 20260509011037 | 49 | 28 | 0.0 | 3.0 | 0.00 | 0.00 | 0.00 | 85 | 1019.1 |
| 20260509010546 | 49 | 28 | 1.0 | 3.0 | 0.00 | 0.00 | 0.00 | 85 | 1019.2 |
| 20260509010043 | 49 | 28 | 1.0 | 3.0 | 0.00 | 0.00 | 0.00 | 85 | 1019.2 |
| 20260509005552 | 49 | 28 | 1.0 | 2.0 | 0.00 | 0.00 | 0.00 | 86 | 1019.2 |
| 20260509005039 | 49 | 28 | 1.0 | 2.0 | 0.00 | 0.00 | 0.00 | 87 | 1019.2 |
| 20260509004549 | 49 | 28 | 1.0 | 2.0 | 0.00 | 0.00 | 0.00 | 87 | 1019.1 |
| 20260509004050 | 49 | 28 | 1.0 | 2.0 | 0.00 | 0.00 | 0.00 | 87 | 1019.1 |
| 20260509003539 | 49 | 28 | 0.0 | 2.0 | 0.00 | 0.00 | 0.00 | 86 | 1019.1 |
| 20260509003111 | 49 | 28 | 0.0 | 2.0 | 0.00 | 0.00 | 0.00 | 86 | 1019.1 |
| 20260509002539 | 49 | 28 | 0.0 | 0.0 | 0.00 | 0.00 | 0.00 | 86 | 1019.0 |
| 20260509002048 | 49 | 28 | 0.0 | 0.0 | 0.00 | 0.00 | 0.00 | 85 | 1019.0 |
| 20260509001533 | 49 | 28 | 0.0 | 0.0 | 0.00 | 0.00 | 0.00 | 85 | 1019.0 |
| 20260509001041 | 49 | 28 | 0.0 | 0.0 | 0.00 | 0.00 | 0.00 | 85 | 1019.0 |
| 20260509000531 | 49 | 28 | 0.0 | 0.0 | 0.00 | 0.00 | 0.00 | 85 | 1019.0 |
| 20260509000031 | 49 | 28 | 0.0 | 1.0 | 0.00 | 0.00 | 0.00 | 84 | 1019.1 |
| 20260508235541 | 50 | 28 | 0.0 | 1.0 | 0.00 | 0.00 | 0.00 | 84 | 1019.0 |
| 20260508235045 | 50 | 28 | 0.0 | 0.0 | 0.00 | 0.00 | 0.00 | 84 | 1019.0 |
| 20260508234533 | 50 | 28 | 0.0 | 0.0 | 0.00 | 0.00 | 0.00 | 84 | 1019.0 |
| 20260508234107 | 50 | 28 | 0.0 | 0.0 | 0.00 | 0.00 | 0.00 | 84 | 1019.1 |
| 20260508233535 | 50 | 28 | 0.0 | 0.0 | 0.00 | 0.00 | 0.00 | 83 | 1019.1 |
| 20260508233059 | 50 | 28 | 0.0 | 0.0 | 0.00 | 0.00 | 0.00 | 83 | 1019.1 |
| 20260508232548 | 50 | 28 | 0.0 | 0.0 | 0.00 | 0.00 | 0.00 | 83 | 1019.0 |
| 20260508232035 | 50 | 28 | 0.0 | 0.0 | 0.00 | 0.00 | 0.00 | 83 | 1019.1 |
| 20260508231604 | 50 | 28 | 0.0 | 0.0 | 0.00 | 0.00 | 0.00 | 83 | 1019.0 |
| 20260508231032 | 50 | 28 | 0.0 | 0.0 | 0.00 | 0.00 | 0.00 | 82 | 1019.0 |
| 20260508230536 | 50 | 28 | 0.0 | 0.0 | 0.00 | 0.00 | 0.00 | 83 | 1019.0 |
| 20260508230041 | 50 | 28 | 0.0 | 0.0 | 0.00 | 0.00 | 0.00 | 82 | 1019.0 |
| 20260508225549 | 51 | 28 | 0.0 | 0.0 | 0.00 | 0.00 | 0.00 | 82 | 1019.0 |
| 20260508225038 | 51 | 28 | 0.0 | 0.0 | 0.00 | 0.00 | 0.00 | 82 | 1018.8 |
| 20260508224543 | 51 | 28 | 0.0 | 0.0 | 0.00 | 0.00 | 0.00 | 82 | 1018.9 |
| 20260508224049 | 51 | 28 | 0.0 | 0.0 | 0.00 | 0.00 | 0.00 | 82 | 1018.9 |
| 20260508223538 | 51 | 28 | 0.0 | 1.0 | 0.00 | 0.00 | 0.00 | 82 | 1019.0 |
| 20260508223048 | 51 | 28 | 0.0 | 1.0 | 0.00 | 0.00 | 0.00 | 81 | 1019.0 |